Location: Katherine
(14.4670°S, 132.2670°E)
Time: 12:59:40
(UTC+09:30)

ISS - Visible Passes

Search period start: 22 August 2018 00:00
Search period end: 01 September 2018 00:00
Orbit: 401 x 409 km, 51.6° (Epoch: 22 August)

Date Brightness Start Highest point End Pass type
(mag) Time Alt. Az. Time Alt. Az. Time Alt. Az.
22 Aug -2.1 06:05:20 17° WNW 06:05:54 17° NW 06:08:10 10° NNW visible
22 Aug -1.4 19:19:57 10° W 19:22:31 21° SW 19:25:07 10° S visible
23 Aug -1.3 05:16:25 16° NNE 05:16:25 16° NNE 05:17:12 10° NNE visible
